Location: Auckland
(36.8670°S, 174.7670°E)
Time: 20:45:14
(UTC+12:00)

Courier 1B Rocket - Pass Details

Date: 19 July 2019
Orbit: 920 x 1202 km, 28.3° (Epoch: 23 August)

Event Time Altitude Azimuth Distance (km) Brightness Sun altitude
Rises 06:09:20 0° 298° (WNW) 4,027 - -15.8°
Exits shadow 06:11:17 - 302° (WNW) 3,398 7.4 -15.5°
Reaches altitude 10° 06:12:26 10° 306° (NW) 3,033 7.2 -15.2°
Maximum altitude 06:19:10 37° 10° (N) 1,631 6.4 -13.9°
Drops below altitude 10° 06:25:30 10° 74° (ENE) 2,850 9.0 -12.7°
Sets 06:28:20 0° 82° (E) 3,759 10.0 -12.2°
